Location: El Manguito
(10.2358°N, 67.3634°W)
Time: 13:49:59
(UTC+00:00)

GPS 2-12 Rocket1 - Pass Details

Date: 10 September 2024
Orbit: 571 x 629 km, 20.0° (Epoch: 11 October)

Event Time Altitude Azimuth Distance (km) Brightness Sun altitude
Rises 22:50:09 0° 227° (SW) 2,754 7.1 -5.1°
Reaches altitude 10° 22:52:46 10° 214° (SW) 1,855 5.9 -5.7°
Maximum altitude 22:56:19 25° 158° (SSE) 1,164 4.2 -6.6°
Drops below altitude 10° 22:59:53 10° 103° (ESE) 1,859 4.8 -7.5°
Enters shadow 23:00:05 - 101° (E) 1,928 4.9 -7.5°
